Location: Recife
(8.0585°S, 34.8848°W)
Time: 19:06:39
(UTC-03:00)

N. Korean satellite - Pass Details

Date: 26 September 2021
Orbit: 450 x 494 km, 97.3° (Epoch: 28 October)

Event Time Altitude Azimuth Distance (km) Brightness Sun altitude
Rises 03:24:23 0° 41° (NE) 2,558 10.7 -26.1°
Reaches altitude 10° 03:27:02 10° 63° (ENE) 1,687 10.0 -25.5°
Maximum altitude 03:29:23 16° 103° (ESE) 1,342 9.7 -24.9°
Drops below altitude 10° 03:31:44 10° 143° (SE) 1,701 9.8 -24.3°
Sets 03:34:24 0° 164° (SSE) 2,589 10.5 -23.6°
